Hovedside
METAR-TAF:

METAR-TAF

Lufthavner :

Bamako, Mali

Bamako-Sénou internasjonale lufthavn

breddegrad: 12-32N, lengdegrad: 007-57W, høyde over havet: 380 m

Gjeldene værobservasjon

Denne rapporten ble laget for 26 minutter siden, klokken 19:00 UTC
Vind 5 kt fra Nord-nordøst
Temperatur 26°C
Luftfuktighet 21%
Trykk 1014 hPa
Sikt: 8000 m

METAR: GABS 181900Z 02005KT 8000 NSC 26/02 Q1014 NOSIG

Tid: 19:26 (19:26 UTC)

Varsel

Denne rapporten ble laget for 2 timer og 26 minutter siden, klokken 17:00 UTC
Varsel gyldig fra 18. klokken 18 UTC til 19. klokken 24 UTC
Vind 8 kt fra Nord-nordøst
Sikt 10 km eller mer
ingen skyer under 1500 m og ingen bygeskyer
Sannsynlighet 30% :
Midlertidig
fra 19. klokken 05 UTC til 19. klokken 11 UTC
Sikt: 4000 m
mye støv

TAF: GABS 181700Z 1818/1924 02008KT CAVOK PROB30 TEMPO 1905/1911 4000 DU

Værobservasjoner og værvarsel for over 4000 flyplasser (METAR- og TAF-rapporter).

Tilgjengelige stasjoner er representert av de røde og gule prikkene på kartet.

Hold musepekeren over prikken for å se navnet på stasjonen.

Klikk så for å se værobservasjoner og -varsler.

For å forandre kartet kan du klikke på den grønne knappen med svart kryss for å zoome inn, på den grønne knappen med strek for å zoome ut, eller på de grønne pilene for å se tilstøtende kart.


METAR-TAF: